Time,TemperatureF,DewpointF,PressureIn,WindDirection,WindDirectionDegrees,WindSpeedMPH,WindSpeedGustMPH,Humidity,HourlyPrecipIn,Conditions,Clouds,dailyrainin,SoftwareType,DateUTC
2013-02-21 00:12:00,11.4,8.0,30.38,North,360,0.0,0.0,85,0.00,,,0.00,weatherlink.com 1.10,2013-02-21 06:12:00,
2013-02-21 00:27:00,11.5,8.0,30.38,North,360,0.0,0.0,85,0.00,,,0.00,weatherlink.com 1.10,2013-02-21 06:27:00,
2013-02-21 00:42:00,11.3,8.0,30.38,North,360,0.0,0.0,85,0.00,,,0.00,weatherlink.com 1.10,2013-02-21 06:42:00,
2013-02-21 00:57:00,11.5,8.0,30.38,North,360,0.0,0.0,85,0.00,,,0.00,weatherlink.com 1.10,2013-02-21 06:57:00,
2013-02-21 01:12:00,11.3,8.0,30.37,North,360,0.0,0.0,86,0.00,,,0.00,weatherlink.com 1.10,2013-02-21 07:12:00,
2013-02-21 01:27:00,12.2,8.0,30.37,North,360,0.0,0.0,84,0.00,,,0.00,weatherlink.com 1.10,2013-02-21 07:27:00,
2013-02-21 01:42:00,11.9,8.0,30.36,North,360,0.0,0.0,84,0.00,,,0.00,weatherlink.com 1.10,2013-02-21 07:42:00,
2013-02-21 01:57:00,11.7,8.0,30.37,North,360,0.0,0.0,84,0.00,,,0.00,weatherlink.com 1.10,2013-02-21 07:57:00,
2013-02-21 02:12:00,11.5,8.0,30.37,North,360,0.0,0.0,84,0.00,,,0.00,weatherlink.com 1.10,2013-02-21 08:12:00,
2013-02-21 02:27:00,11.0,7.0,30.37,North,360,0.0,0.0,84,0.00,,,0.00,weatherlink.com 1.10,2013-02-21 08:27:00,
2013-02-21 02:42:00,11.3,8.0,30.36,North,360,0.0,0.0,86,0.00,,,0.00,weatherlink.com 1.10,2013-02-21 08:42:00,
2013-02-21 02:57:00,11.1,8.0,30.37,North,360,0.0,0.0,85,0.00,,,0.00,weatherlink.com 1.10,2013-02-21 08:57:00,
2013-02-21 03:12:00,10.8,7.0,30.37,North,360,0.0,0.0,85,0.00,,,0.00,weatherlink.com 1.10,2013-02-21 09:12:00,
2013-02-21 03:27:00,11.2,8.0,30.38,North,360,0.0,0.0,85,0.00,,,0.00,weatherlink.com 1.10,2013-02-21 09:27:00,
2013-02-21 03:43:00,11.1,7.0,30.39,North,360,0.0,0.0,84,0.00,,,0.00,weatherlink.com 1.10,2013-02-21 09:43:00,
2013-02-21 03:58:00,11.4,8.0,30.39,North,360,0.0,0.0,85,0.00,,,0.00,weatherlink.com 1.10,2013-02-21 09:58:00,
2013-02-21 04:13:00,11.5,8.0,30.39,North,360,1.0,2.0,84,0.00,,,0.00,weatherlink.com 1.10,2013-02-21 10:13:00,
2013-02-21 04:28:00,11.6,7.0,30.39,North,360,1.0,2.0,83,0.00,,,0.00,weatherlink.com 1.10,2013-02-21 10:28:00,
2013-02-21 04:43:00,11.4,8.0,30.37,North,5,1.0,2.0,84,0.00,,,0.00,weatherlink.com 1.10,2013-02-21 10:43:00,
2013-02-21 04:58:00,11.6,8.0,30.35,NE,38,3.0,4.0,84,0.00,,,0.00,weatherlink.com 1.10,2013-02-21 10:58:00,
2013-02-21 05:13:00,11.7,8.0,30.32,NNE,17,2.0,6.0,84,0.00,,,0.00,weatherlink.com 1.10,2013-02-21 11:13:00,
2013-02-21 05:28:00,11.8,8.0,30.34,NE,40,1.0,5.0,84,0.00,,,0.00,weatherlink.com 1.10,2013-02-21 11:28:00,
2013-02-21 05:43:00,11.7,8.0,30.38,ENE,72,0.0,4.0,84,0.00,,,0.00,weatherlink.com 1.10,2013-02-21 11:43:00,
2013-02-21 05:58:00,11.3,7.0,30.36,North,5,1.0,4.0,84,0.00,,,0.00,weatherlink.com 1.10,2013-02-21 11:58:00,
2013-02-21 06:13:00,11.1,8.0,30.37,NNE,28,2.0,3.0,85,0.00,,,0.00,weatherlink.com 1.10,2013-02-21 12:13:00,
2013-02-21 06:28:00,11.5,8.0,30.38,NNE,18,0.0,3.0,84,0.00,,,0.00,weatherlink.com 1.10,2013-02-21 12:28:00,
2013-02-21 06:43:00,11.0,7.0,30.37,NNE,13,1.0,3.0,85,0.00,,,0.00,weatherlink.com 1.10,2013-02-21 12:43:00,
2013-02-21 06:58:00,10.7,7.0,30.37,NNE,23,2.0,2.0,86,0.00,,,0.00,weatherlink.com 1.10,2013-02-21 12:58:00,
2013-02-21 07:13:00,11.2,8.0,30.38,NNE,28,1.0,3.0,85,0.00,,,0.00,weatherlink.com 1.10,2013-02-21 13:13:00,
2013-02-21 07:28:00,11.4,8.0,30.40,NNE,22,1.0,2.0,85,0.00,,,0.00,weatherlink.com 1.10,2013-02-21 13:28:00,
2013-02-21 07:43:00,11.6,8.0,30.38,NNE,24,4.0,5.0,86,0.00,,,0.00,weatherlink.com 1.10,2013-02-21 13:43:00,
2013-02-21 07:58:00,12.8,9.0,30.36,NW,322,3.0,9.0,86,0.00,,,0.00,weatherlink.com 1.10,2013-02-21 13:58:00,
2013-02-21 08:13:00,13.6,10.0,30.36,NNE,25,3.0,5.0,85,0.00,,,0.00,weatherlink.com 1.10,2013-02-21 14:13:00,
2013-02-21 08:28:00,14.2,11.0,30.36,NE,34,2.0,7.0,85,0.00,,,0.00,weatherlink.com 1.10,2013-02-21 14:28:00,
2013-02-21 08:43:00,15.1,11.0,30.36,NE,47,2.0,6.0,85,0.00,,,0.00,weatherlink.com 1.10,2013-02-21 14:43:00,
2013-02-21 08:58:00,15.9,12.0,30.36,NE,34,2.0,7.0,85,0.00,,,0.00,weatherlink.com 1.10,2013-02-21 14:58:00,
2013-02-21 09:13:00,16.6,13.0,30.36,NNE,21,1.0,6.0,85,0.00,,,0.00,weatherlink.com 1.10,2013-02-21 15:13:00,
2013-02-21 09:28:00,17.3,14.0,30.36,East,86,1.0,8.0,85,0.00,,,0.00,weatherlink.com 1.10,2013-02-21 15:28:00,
2013-02-21 09:43:00,17.7,14.0,30.36,NE,51,2.0,6.0,85,0.00,,,0.00,weatherlink.com 1.10,2013-02-21 15:43:00,
2013-02-21 09:58:00,18.1,14.0,30.36,NE,34,2.0,5.0,84,0.00,,,0.00,weatherlink.com 1.10,2013-02-21 15:58:00,
2013-02-21 10:13:00,18.5,15.0,30.37,ENE,69,5.0,6.0,84,0.00,,,0.00,weatherlink.com 1.10,2013-02-21 16:13:00,
2013-02-21 10:28:00,18.7,14.0,30.36,NNE,25,3.0,6.0,83,0.00,,,0.00,weatherlink.com 1.10,2013-02-21 16:28:00,
2013-02-21 10:43:00,19.0,15.0,30.35,NNE,12,4.0,8.0,83,0.00,,,0.00,weatherlink.com 1.10,2013-02-21 16:43:00,
2013-02-21 10:58:00,19.6,15.0,30.33,East,79,5.0,7.0,83,0.00,,,0.00,weatherlink.com 1.10,2013-02-21 16:58:00,
2013-02-21 11:13:00,19.8,15.0,30.33,NE,49,3.0,8.0,83,0.00,,,0.00,weatherlink.com 1.10,2013-02-21 17:13:00,
2013-02-21 11:28:00,20.2,16.0,30.34,NNE,32,2.0,7.0,84,0.00,,,0.00,weatherlink.com 1.10,2013-02-21 17:28:00,
2013-02-21 11:43:00,20.3,16.0,30.32,NNE,30,3.0,7.0,83,0.00,,,0.00,weatherlink.com 1.10,2013-02-21 17:43:00,
2013-02-21 11:58:00,20.0,16.0,30.30,NE,47,3.0,8.0,84,0.00,,,0.00,weatherlink.com 1.10,2013-02-21 17:58:00,
2013-02-21 12:13:00,19.9,16.0,30.29,NNE,26,6.0,9.0,85,0.00,,,0.00,weatherlink.com 1.10,2013-02-21 18:13:00,
2013-02-21 12:28:00,19.9,16.0,30.28,NNE,24,3.0,12.0,86,0.00,,,0.00,weatherlink.com 1.10,2013-02-21 18:28:00,
2013-02-21 12:43:00,20.2,17.0,30.27,NE,34,6.0,10.0,86,0.00,,,0.00,weatherlink.com 1.10,2013-02-21 18:43:00,
2013-02-21 12:59:00,20.9,17.0,30.25,NE,51,2.0,9.0,86,0.00,,,0.00,weatherlink.com 1.10,2013-02-21 18:59:00,
2013-02-21 13:14:00,21.9,18.0,30.23,North,5,3.0,6.0,86,0.00,,,0.00,weatherlink.com 1.10,2013-02-21 19:14:00,
2013-02-21 13:29:00,21.9,18.0,30.23,NNE,12,3.0,8.0,85,0.00,,,0.00,weatherlink.com 1.10,2013-02-21 19:29:00,
2013-02-21 13:44:00,21.8,18.0,30.22,NNW,331,5.0,10.0,85,0.00,,,0.00,weatherlink.com 1.10,2013-02-21 19:44:00,
2013-02-21 13:59:00,22.2,19.0,30.22,NNW,340,5.0,8.0,86,0.00,,,0.00,weatherlink.com 1.10,2013-02-21 19:59:00,
2013-02-21 14:14:00,22.2,19.0,30.22,ENE,63,5.0,13.0,86,0.00,,,0.00,weatherlink.com 1.10,2013-02-21 20:14:00,
2013-02-21 14:29:00,22.5,19.0,30.23,NNE,24,4.0,8.0,87,0.00,,,0.00,weatherlink.com 1.10,2013-02-21 20:29:00,
2013-02-21 14:44:00,22.6,20.0,30.22,NE,44,4.0,7.0,88,0.00,,,0.00,weatherlink.com 1.10,2013-02-21 20:44:00,
2013-02-21 14:59:00,22.8,20.0,30.22,NE,37,2.0,11.0,87,0.00,,,0.00,weatherlink.com 1.10,2013-02-21 20:59:00,
2013-02-21 15:14:00,22.7,20.0,30.21,NNE,17,2.0,8.0,88,0.00,,,0.00,weatherlink.com 1.10,2013-02-21 21:14:00,
2013-02-21 15:29:00,22.7,20.0,30.19,NE,36,5.0,11.0,88,0.00,,,0.00,weatherlink.com 1.10,2013-02-21 21:29:00,
2013-02-21 15:44:00,22.7,20.0,30.20,NNE,17,2.0,10.0,89,0.00,,,0.00,weatherlink.com 1.10,2013-02-21 21:44:00,
2013-02-21 15:59:00,22.8,20.0,30.20,NE,36,4.0,9.0,89,0.00,,,0.00,weatherlink.com 1.10,2013-02-21 21:59:00,
2013-02-21 16:14:00,22.6,20.0,30.18,East,83,6.0,9.0,90,0.00,,,0.00,weatherlink.com 1.10,2013-02-21 22:14:00,
2013-02-21 16:29:00,22.7,21.0,30.16,NNE,25,6.0,9.0,91,0.00,,,0.00,weatherlink.com 1.10,2013-02-21 22:29:00,
2013-02-21 16:44:00,22.4,20.0,30.14,NNE,32,4.0,12.0,91,0.00,,,0.00,weatherlink.com 1.10,2013-02-21 22:44:00,
2013-02-21 16:59:00,22.1,20.0,30.12,NNE,30,7.0,12.0,92,0.00,,,0.00,weatherlink.com 1.10,2013-02-21 22:59:00,
2013-02-21 17:14:00,22.2,21.0,30.12,NNE,15,3.0,10.0,93,0.00,,,0.00,weatherlink.com 1.10,2013-02-21 23:14:00,
2013-02-21 17:29:00,22.2,21.0,30.12,NE,54,3.0,9.0,93,0.00,,,0.00,weatherlink.com 1.10,2013-02-21 23:29:00,
2013-02-21 17:44:00,22.2,21.0,30.11,ENE,67,4.0,9.0,94,0.00,,,0.00,weatherlink.com 1.10,2013-02-21 23:44:00,
2013-02-21 17:59:00,22.4,21.0,30.11,East,80,6.0,14.0,94,0.00,,,0.00,weatherlink.com 1.10,2013-02-21 23:59:00,
2013-02-21 18:14:00,22.6,21.0,30.09,NE,49,6.0,10.0,94,0.00,,,0.00,weatherlink.com 1.10,2013-02-22 00:14:00,
2013-02-21 18:29:00,23.0,22.0,30.09,NNE,17,4.0,11.0,94,0.00,,,0.00,weatherlink.com 1.10,2013-02-22 00:29:00,
2013-02-21 18:44:00,23.9,23.0,30.07,NE,41,3.0,13.0,94,0.00,,,0.00,weatherlink.com 1.10,2013-02-22 00:44:00,
2013-02-21 18:59:00,24.7,23.0,30.06,ENE,74,7.0,10.0,92,0.00,,,0.00,weatherlink.com 1.10,2013-02-22 00:59:00,
2013-02-21 19:14:00,24.8,23.0,30.05,NE,36,6.0,12.0,92,0.00,,,0.00,weatherlink.com 1.10,2013-02-22 01:14:00,
2013-02-21 19:29:00,25.0,23.0,30.06,NE,36,11.0,14.0,91,0.00,,,0.00,weatherlink.com 1.10,2013-02-22 01:29:00,
2013-02-21 19:44:00,25.1,23.0,30.07,ENE,57,3.0,13.0,91,0.00,,,0.00,weatherlink.com 1.10,2013-02-22 01:44:00,
2013-02-21 19:59:00,25.2,23.0,30.05,ENE,63,2.0,15.0,90,0.00,,,0.00,weatherlink.com 1.10,2013-02-22 01:59:00,
2013-02-21 20:14:00,25.2,23.0,30.01,NE,46,7.0,14.0,90,0.00,,,0.00,weatherlink.com 1.10,2013-02-22 02:14:00,
2013-02-21 20:29:00,25.2,23.0,30.01,East,82,5.0,14.0,90,0.00,,,0.00,weatherlink.com 1.10,2013-02-22 02:29:00,
2013-02-21 20:44:00,25.4,23.0,30.02,ENE,71,5.0,15.0,90,0.00,,,0.00,weatherlink.com 1.10,2013-02-22 02:44:00,
2013-02-21 20:59:00,25.6,23.0,30.02,ENE,71,4.0,11.0,90,0.00,,,0.00,weatherlink.com 1.10,2013-02-22 02:59:00,
2013-02-21 21:14:00,25.7,23.0,30.02,SSE,159,6.0,15.0,90,0.00,,,0.00,weatherlink.com 1.10,2013-02-22 03:14:00,
2013-02-21 21:30:00,25.8,23.0,30.02,ENE,78,10.0,11.0,89,0.00,,,0.00,weatherlink.com 1.10,2013-02-22 03:30:00,
2013-02-21 21:45:00,25.9,23.0,30.02,NE,34,4.0,9.0,88,0.00,,,0.00,weatherlink.com 1.10,2013-02-22 03:45:00,
2013-02-21 22:00:00,26.0,23.0,30.01,NE,49,6.0,11.0,88,0.00,,,0.00,weatherlink.com 1.10,2013-02-22 04:00:00,
2013-02-21 22:15:00,25.5,23.0,29.99,NE,40,5.0,11.0,91,0.00,,,0.00,weatherlink.com 1.10,2013-02-22 04:15:00,
2013-02-21 22:30:00,25.1,23.0,29.97,NE,52,3.0,13.0,92,0.00,,,0.00,weatherlink.com 1.10,2013-02-22 04:30:00,
2013-02-21 22:45:00,24.8,23.0,29.95,NNE,30,10.0,11.0,94,0.00,,,0.00,weatherlink.com 1.10,2013-02-22 04:45:00,
2013-02-21 23:00:00,24.8,23.0,29.95,NE,53,5.0,9.0,94,0.00,,,0.00,weatherlink.com 1.10,2013-02-22 05:00:00,
2013-02-21 23:15:00,24.8,24.0,29.94,NNE,27,7.0,12.0,95,0.00,,,0.00,weatherlink.com 1.10,2013-02-22 05:15:00,
2013-02-21 23:30:00,24.8,24.0,29.93,NE,35,7.0,11.0,95,0.00,,,0.00,weatherlink.com 1.10,2013-02-22 05:30:00,
2013-02-21 23:45:00,24.8,24.0,29.92,ENE,65,10.0,11.0,95,0.00,,,0.00,weatherlink.com 1.10,2013-02-22 05:45:00,